This is the latest recevied weather packets stored in our database for station/object OE6ATD-13. If no packets are shown the sender has not sent any weather packets the latest 10 day(s).
| Time | Temp. | Humidity | Pressure | Rain* | Wind** | Luminosity | Snow |
|---|---|---|---|---|---|---|---|
| 1778328325 | 25° C | 40% | 1015.5 hPa | 0 mm | - | 833 W/m² | - |
| 1778327720 | 25° C | 41% | 1015.5 hPa | 0 mm | - | 911 W/m² | - |
| 1778327115 | 24.44° C | 41% | 1015.8 hPa | 0 mm | - | 612 W/m² | - |
| 1778326526 | 23.89° C | 41% | 1015.9 hPa | 0 mm | - | 568 W/m² | - |
| 1778325922 | 24.44° C | 41% | 1015.9 hPa | 0 mm | - | 473 W/m² | - |
| 1778325318 | 24.44° C | 41% | 1016 hPa | 0 mm | - | 501 W/m² | - |
| 1778324729 | 24.44° C | 41% | 1016.3 hPa | 0 mm | - | 731 W/m² | - |
| 1778324130 | 24.44° C | 41% | 1016.4 hPa | 0 mm | - | 677 W/m² | - |
| 1778323526 | 24.44° C | 40% | 1016.4 hPa | 0 mm | - | 752 W/m² | - |
| 1778322921 | 23.89° C | 41% | 1016.4 hPa | 0 mm | - | 859 W/m² | - |
| 1778322317 | 23.89° C | 41% | 1016.5 hPa | 0 mm | - | 887 W/m² | - |
| 1778321719 | 23.33° C | 42% | 1016.5 hPa | 0 mm | - | 922 W/m² | - |
| 1778321130 | 22.78° C | 43% | 1016.6 hPa | 0 mm | - | 879 W/m² | - |
| 1778320526 | 22.78° C | 43% | 1016.7 hPa | 0 mm | - | 859 W/m² | - |
| 1778319922 | 22.22° C | 45% | 1016.7 hPa | 0 mm | - | 846 W/m² | - |
| 1778319318 | 22.22° C | 45% | 1016.8 hPa | 0 mm | - | 830 W/m² | - |
| 1778318729 | 22.22° C | 44% | 1016.8 hPa | 0 mm | - | 815 W/m² | - |
| 1778318124 | 22.22° C | 49% | 1016.9 hPa | 0 mm | - | 801 W/m² | - |
| 1778317519 | 21.67° C | 50% | 1017 hPa | 0 mm | - | 766 W/m² | - |
| 1778316915 | 21.67° C | 49% | 1017 hPa | 0 mm | - | 751 W/m² | - |
| 1778316326 | 21.67° C | 48% | 1016.9 hPa | 0 mm | - | 737 W/m² | - |
| 1778315722 | 21.67° C | 49% | 1017 hPa | 0 mm | - | 714 W/m² | - |
| 1778315124 | 21.11° C | 48% | 1017 hPa | 0 mm | - | 691 W/m² | - |
| 1778314520 | 21.11° C | 50% | 1017.1 hPa | 0 mm | - | 668 W/m² | - |
| 1778313916 | 20.56° C | 52% | 1017.1 hPa | 0 mm | - | 631 W/m² | - |
* Rain latest hour (hover to see other rain measurements)
** Current wind speed in m/s (hover to see current wind gust speed)